Regional Weather Roundup
Issued by NWS Charleston, SC

Current Version | Previous Version | Text Only | Print | Product List | Glossary Off
Versions: 1 2 3 4 5 6 7 8 9 10 11 12 13 14 15 16 17 18 19 20 21 22 23 24 25 26 27 28 29 30 31 32 33 34 35 36 37 38 39 40 41 42 43 44 45 46 47 48 49 50

000
ASUS42 KCHS 241213
RWRCHS

REGIONAL WEATHER ROUNDUP
NATIONAL WEATHER SERVICE CHARLESTON SC
800 AM EDT SUN JUL 24 2016

NOTE: "FAIR" INDICATES FEW OR NO CLOUDS BELOW 12,000 FEET WITH NO
SIGNIFICANT WEATHER AND/OR OBSTRUCTIONS TO VISIBILITY.

NOT ALL STATIONS ARE QUALITY CONTROLLED. USE DATA WITH CAUTION...
ESPECIALLY DEWPOINT OBSERVATIONS.

SCZ027-030-031-034>040-042>050-241300-
...SOUTHEAST SOUTH CAROLINA...

CITY           SKY/WX    TMP DP  RH WIND       PRES   REMARKS
N CHARLESTON   MOSUNNY   82  75  79 SW8       30.03R
6HR MIN TEMP:  78; 6HR MAX TEMP:  82;

WATERFRONT PRK   N/A     82  78  88 VRB2      30.01R HX  91
MOUNT PLEASANT FAIR      81  79  94 CALM      30.04R
JOHNS ISLAND   FAIR      82  79  89 CALM      30.04R HX  93
PINOPOLIS        N/A     81  75  83 SW8       29.96R
MONCKS CORNER  FAIR      77  72  83 SW5       30.03R
SUMMERVILLE    FAIR      77  77 100 CALM      30.04
BEAUFORT MCAS  SUNNY     82  75  79 SW5       30.04R
6HR MIN TEMP:  78; 6HR MAX TEMP:  83;

BEAUFORT ARPT  FAIR      81  75  83 CALM      30.04R
HILTON HEAD IS SUNNY     82  77  83 SW6       30.04R HX  91
WALTERBORO     SUNNY     81  79  94 SW6       30.04S
ALLENDALE      FAIR      77  73  88 S3        30.04R

...SOUTHERN MIDLANDS AND PEE DEE...

CITY           SKY/WX    TMP DP  RH WIND       PRES   REMARKS
GEORGETOWN     FAIR      77  75  94 SW3       30.03S
KINGSTREE      FAIR      77  72  83 CALM      30.02R
ORANGEBURG     SUNNY     77  73  87 SW5       30.03R
6HR MIN TEMP:  74; 6HR MAX TEMP:  79;

BARNWELL       NOT AVBL
AIKEN          FAIR      77  70  78 SW6       30.07R
MANNING        FAIR      77  72  83 SW6       30.03R
COLUMBIA       MOSUNNY   79  71  76 SW3       30.01S
6HR MIN TEMP:  74; 6HR MAX TEMP:  79;

SUMTER         SUNNY     77  72  85 SW5       30.00R HAZE
6HR MIN TEMP:  75; 6HR MAX TEMP:  78;

FLORENCE       MOSUNNY   80  74  81 SW8       30.02R
6HR MIN TEMP:  77; 6HR MAX TEMP:  80;

MYRTLE BEACH   MOSUNNY   82  70  65 SW7       30.04R
N MYRTLE BEACH CLOUDY    84  76  76 SW10      30.02R HX  93
6HR MIN TEMP:  79; 6HR MAX TEMP:  84;


$$

GAZ063-065-086>088-099>101-113>116-118-119-134>141-150-241300-
...SOUTHEAST GEORGIA...

CITY           SKY/WX    TMP DP  RH WIND       PRES   REMARKS
SAVANNAH ARPT  MOSUNNY   80  73  79 SW6       30.04R
6HR MIN TEMP:  77; 6HR MAX TEMP:  80;

HUNTER AAF     SUNNY     80  79  95 VRB2      30.02R
6HR MIN TEMP:  77; 6HR MAX TEMP:  80;

FORT STEWART   SUNNY     78  73  85 S2        30.02R
6HR MIN TEMP:  74; 6HR MAX TEMP:  78;

STATESBORO     SUNNY     78  75  92 CALM      30.04R
SYLVANIA       NOT AVBL
CLAXTON        FAIR      75  74  99 CALM      30.04R

...CSRA...CENTRAL AND FAR SOUTHEAST GEORGIA...

CITY           SKY/WX    TMP DP  RH WIND       PRES   REMARKS
THOMSON        SUNNY     78  74  89 CALM      30.08R
AUGUSTA-BUSH   SUNNY     76  72  87 CALM      30.02R
6HR MIN TEMP:  71; 6HR MAX TEMP:  76;

AUGUSTA-DANIEL SUNNY     80  69  69 CALM      30.04R
SWAINSBORO     FAIR      75  72  88 CALM      30.05R
VIDALIA        SUNNY     77  72  83 CALM      30.05R
EASTMAN        FAIR      77  76  96 CALM      30.07R
HAZLEHURST     FAIR      78  78  99 CALM      30.04R
ALMA           SUNNY     76  73  91 CALM      30.04R
6HR MIN TEMP:  71; 6HR MAX TEMP:  78;

WAYCROSS       SUNNY     79  76  92 SW3       30.05R
JESUP          FAIR      75  75 100 CALM      30.05R
BAXLEY         FAIR      75  75 100 CALM      30.04R
BRUNSWICK      SUNNY     81  77  89 SW5       30.05R
SAINT SIMONS   SUNNY     81  73  76 SW10      30.04R
6HR MIN TEMP:  79; 6HR MAX TEMP:  83;


$$

SCZ027-028-034-036>038-045-046-048>050-GAZ119-141-241300-
...LAKE AND SUPPLEMENTAL COASTAL OBSERVATIONS...

STATION/POSITION TIME  TEMP    WIND        PRES    WAVE   SWELL
                       AIR SEA DIR/SP/G            HT/PER HT/PER/DIR
                 (UTC) (F)     (DEG/KT/KT) (MB)    (FT/S) (FT/S/D)
WINYAH BAY       NOT AVBL
LAKE MURRAY      1100   80     260/  3/  4 1015.9R
ACE BASIN NERRS  NOT AVBL
FORT PULASKI     1100   80 87  220/  3/  5 1017.0R
SAPELO ISLAND    1100   80     180/  5     1017.0R

$$

ANZ835-935-AMZ111-154-330-350-352-354-370-450-454-472-241300-
...C-MAN AND BUOY OBSERVATIONS...

STATION/POSITION TIME  TEMP    WIND        PRES    WAVE   SWELL
                       AIR SEA DIR/SP/G            HT/PER HT/PER/DIR
                 (UTC) (F)     (DEG/KT/KT) (MB)    (FT/S) (FT/S/D)
BUOY 41004       1150   85 86  240/ 12/ 12 1016.6R   3/ 4   2/130/ 8
BUOY 41008       1150   84 86  200/ 10/ 12 1016.8R   3/ 8   2/ 80/ 8
FOLLY BEACH CMAN 1200   82     270/  4/  7 1017.2R
CAPERS NEARSHORE 1108   83 83  280/  8/ 10 1016.5R
FRIPP NEARSHORE  1108   83 86  260/  8/ 12 1016.2R


STATION/POSITION TIME  TEMP    WIND        PRES    WAVE   SWELL
                       AIR SEA DIR/SP/G            HT/PER HT/PER/DIR
                 (UTC) (F)     (DEG/KT/KT) (MB)    (FT/S) (FT/S/D)
5E ST. MARYS GA  1101      86                N/A     2/ 8
FRYING PAN BUOY  1100   84 85  210/  8/ 10 1016.5R
BUOY 41025       1150   84 85  250/ 14/ 16 1016.2R   3/ 4   2/110/ 9
CAPE LOOKOUT NC  1200   84     240/  6/  7 1016.5R
BUOY 41002       1150   83 84   60/  2/  4 1018.0R   2/ 8   2/100/ 8
BUOY 41010       1120   86 86   CALM  /  2 1017.7R
ST AUGUSTINE FL  1200   79 85  190/  4/  6 1018.3R


$$



USA.gov is the U.S. government's official web portal to all federal, state and local government web resources and services.